NEW MELONES RESERVOIR (NML)

Elevation: 1135' · STANISLAUS R basin · Operator: US Bureau of Reclamation

Provisional data, subject to change.
Query executed Friday at 0:16:03   clock

Select a sensor type for a plot of data.
Note: Reservoir Flows are daily averages.

Earlier

Date RES ELE    STORAGE    RES CHG    TOC STO    ABV TOC    OUTFLOW    INFLOW    EVAP    FNF    RIV REL    PPT INC    SPILL    DIS PWR   
 FEET   AF   AF   AF   AF   CFS   CFS   CFS   CFS   CFS   INCHES   CFS   CFS  
07/01/2015 834.78 400111 -1143 2420000 -2019889 1061 551 66 197 0 0.00 0 1061
07/02/2015 834.48 398888 -1223 2420000 -2021112 1060 506 63 260 0 0.00 0 1060
07/03/2015 834.19 397706 -1182 2420000 -2022294 1043 510 63 314 0 0.00 0 1043
07/04/2015 833.62 395391 -2315 2420000 -2024609 1424 312 55 266 0 0.00 0 1424
07/05/2015 832.87 392356 -3035 2420000 -2027644 1748 282 64 220 0 0.00 0 1748
07/06/2015 832.38 390383 -1973 2420000 -2029617 1243 292 44 222 0 0.00 0 1243
07/07/2015 831.93 388573 -1810 2420000 -2031427 1070 200 43 127 0 0.00 0 1070
07/08/2015 831.76 387893 -680 2420000 -2032107 607 308 44 244 0 0.00 0 607
07/09/2015 831.25 385852 -2041 2420000 -2034148 1290 306 45 358 0 0.00 0 1290
07/10/2015 830.79 384016 -1836 2420000 -2035984 1234 340 32 89 0 0.00 0 1234
07/11/2015 830.26 381907 -2109 2420000 -2038093 1321 279 21 516 0 0.00 0 1321
07/12/2015 829.54 379055 -- 2420000 -2040945 1655 262 45 214 0 0.00 0 1655
07/13/2015 828.98 376842 -2213 2420000 -2043158 1362 288 42 196 0 0.00 0 1362
07/14/2015 828.58 375271 -1571 2420000 -2044729 1054 313 51 241 0 0.00 0 1054
07/15/2015 828.16 373621 -1650 2420000 -2046379 1139 355 48 307 0 0.00 0 1139
07/16/2015 827.65 371627 -1994 2420000 -2048373 1245 291 51 240 0 0.00 0 1245
07/17/2015 827.31 370300 -1327 2420000 -2049700 968 352 53 309 0 0.00 0 968
07/18/2015 827.05 369285 -1015 2420000 -2050715 806 349 55 302 0 0.00 0 806
07/19/2015 826.56 367383 -1902 2420000 -2052617 1203 284 40 245 0 0.00 0 1203
07/20/2015 825.93 364941 -2442 2420000 -2055059 1571 385 45 351 0 0.00 0 1571
07/21/2015 825.39 362860 -2081 2420000 -2057140 1310 306 45 271 0 0.00 0 1310
07/22/2015 824.98 361280 -1580 2420000 -2058720 1043 294 48 255 0 0.00 0 1043
07/23/2015 824.74 360361 -919 2420000 -2059639 733 322 52 282 0 0.00 0 733
07/24/2015 824.14 358063 -2298 2420000 -2061937 1406 298 51 248 0 0.00 0 1406
07/25/2015 823.51 355662 -2401 2420000 -2064338 1444 287 53 217 0 0.00 0 1444
07/26/2015 822.93 353456 -2206 2420000 -2066544 1335 275 52 210 0 0.00 0 1335
07/27/2015 822.37 351339 -2117 2420000 -2068661 1323 307 51 236 0 0.00 0 1323
07/28/2015 821.82 349264 -2075 2420000 -2070736 1317 326 55 244 0 0.00 0 1317
07/29/2015 821.24 347085 -2179 2420000 -2072915 1472 429 56 324 0 0.00 0 1472
07/30/2015 -- -- -- -- -- -- -- -- -- -- -- -- --
07/31/2015 -- -- -- -- -- -- -- -- -- -- -- -- --

Later | Latest

Warning! This data is preliminary and subject to revision.

Show NML Map | Plot NML Data | 1 Month NML Data | Real-Time NML Data | NML Info